CZ-3B DEB, 39333

Orbit data source: Space-Track

CZ-3B DEB, 39333 is space debris in HEO originally from a launch on Sat, 04 Sep 2010 UTC launched from the Xichang Space Center, China (XSC). Debris objects in space refer to the collection of defunct objects orbiting the Earth. Examples of debris include non-operational satellites, rocket bodies, and fragments generated from explosions, collisions, or faulty payload assembly.

Loading next visibility...
Identifier
39333, 2010-042E
Orbit
HEO
Last TLE update
6 days ago
Origin
Manufacturer
CALT
Mission
Spacecraft
Bus & Motor
Unknown
Mass
Unknown
Launch date (UTC)
2010-09-04 (15 years ago)
Launch vehicle
Unknown
Launch site
Xichang Space Center, China (XSC)
Object type
Payload
Rocket body
Debris
Shape & HBR
Unknown
Radar Cross Section
Medium (>0.1 m² and <1 m²)

Expand to show TLE details & history

TLE from 6 days ago
0 CZ-3B DEB
1 39333U 10042E   25123.56789788  .00001611  00000-0  10444-1 0  9992
2 39333  23.2826 135.1254 7500446 293.9858 322.6329  1.91114991 82279
Epoch: 2025-05-03T13:37Z
Definitive object data (Epoch: 2025-05-03T13:37:46.376Z)
Latitude
6.76822°
Longitude
-126.93471°
Altitude
17,314.801 km
Speed
4.372 km/s
True Right ascension
19h 56m 52s
True Declination
6° 45' 22"
Sunlit
Object was in daylight at TLE epoch
Visualization TLE readout
Latitude
11.47761°
Longitude
-140.8127°
Altitude
25,962.89 km
Speed
3.181 km/s
Apparent Right ascension
19h 34m 18s
Apparent Declination
4° 33' 43"
Sunlit
Object is in daylight
Visualization observer readout
Local Sidereal Time
15:02:27
Azimuth
100.963° ESE
Elevation
19.75°
Doppler factor
1
Orbital elements
Apogee altitude
41,630.791 km
Perigee altitude
478.883 km
Semi-major axis
27,432.974 km
Eccentricity
0.7500446
Inclination
23.2826°
RAAN
135.1254°
Arg. of periapsis
293.9858°
True anomaly
228.76679°
Mean anomaly
322.6329°
Eccentric anomaly
280.35897°
Mean motion
0.47768 °/min
BSTAR
0.010444
Orbital period
753.65 mins
Loading maneuver chart data...
Loading SW <> Apogee altitude chart data...
Loading historical data...
Loading historical data...
Loading historical data...
Loading historical data...
Loading historical data...
Loading historical data...
Loading historical data...

CZ-3B DEB Visibility forecast

Observer location: undefined°, undefined°

Span
Click to sort rows by Start time (UTC) header in descending order
Start Az.
Max El. time (UTC)
Max El. Az.
Max El.
End time (UTC)
End Az.
51 mins2025-05-09 06:53:32.608Z100.985° ESE2025-05-09 06:53:32.608Z100.985° ESE18.663°2025-05-09 07:44:32.608Z104.575° ESE
171 mins2025-05-09 10:33:32.608Z279.2° WNW2025-05-09 11:38:32.608Z279.379° WNW15.664°2025-05-09 13:24:32.608Z284.436° WNW
277 mins2025-05-10 02:16:32.608Z75.856° E2025-05-10 06:53:32.608Z107.142° ESE29.621°2025-05-10 06:53:32.608Z107.142° ESE
|